STARLINK-34091, 63808

Orbit data source: Space-Track

STARLINK-34091, 63808 is a payload satellite owned by SpaceX/Seattle (US) in LEO that was launched on Sun, 04 May 2025 UTC via an FALCON 9 launch vehicle from the Air Force Eastern Test Range (AFETR). Payload-class satellites include a variety of spacecraft equipped with specific instruments for various scientific and technological missions. These include communications satellites like Starlink; space stations such as the ISS; scientific satellites like the Hubble; Earth observation satellites from companies like Planet Labs, Umbra, and HawkEye 360; GPS; miniature CubeSats for education and research; and military/defense satellites.

Loading next visibility...
Identifier
63808, 2025-092E
Orbit
LEO
Country
Flag of USUS
Related business
Manufacturer
SpaceX/Seattle
Mission
Operational Commercial Communications
Bus & Motor
STARLINK V2MO, Unknown motor
Mass
575 kg wet, ~530 kg dry
Launch date (UTC)
2025-05-04 (9 months ago)
Launch vehicle
FALCON 9
Launch site
Air Force Eastern Test Range (AFETR)
Object type
Payload
Rocket body
Debris
Shape & HBR
Box + 2 Pan, 17.7 m
Radar Cross Section
36.964 m², Large (>1 m²)

Expand to show TLE details & history
Last TLE update: 1 day ago

TLE from 1 day ago
0 STARLINK-34091
1 63808U 25092E   26033.97175319  .00037322  00000-0  13585-2 0  9990
2 63808  43.0007   8.7296 0000952 204.8411 155.2395 15.27591360 43353
Epoch: 2026-02-02T23:19Z
TLE epoch observation values (Epoch: 2026-02-02T23:19:19.475Z)
Latitude
-0.00002°
Longitude
-114.26095°
Altitude
483.384 km
Speed
7.625 km/s
True Right ascension
00h 34m 55s
True Declination
0° 00' 00"
Sunlit
Object was in daylight at epoch
Visualization orbit readout
Latitude
Unknown
Longitude
Unknown
Altitude
Unknown
Speed
Unknown
Apparent Right ascension
Unknown
Apparent Declination
Unknown
Sunlit
N/A
Visualization observer readout
Local Sidereal Time
05:39:21
Azimuth
Unknown
Elevation
Unknown
Doppler factor
Unknown
Orbital elements
Apogee altitude
485.614 km
Perigee altitude
484.307 km
Semi-major axis
6,863.097 km
Eccentricity
0.0001
Inclination
43.0007°
RAAN
8.7296°
Arg. of periapsis
204.8411°
True anomaly
155.24407°
Mean anomaly
155.2395°
Eccentric anomaly
155.24178°
Mean motion
3.81736 °/min
Orbital period
94.31 mins
BSTAR
0.0013585
Loading maneuver chart data...
Computing Atmospheric mass density...
Loading historical data...
Loading historical data...
Loading historical data...
Loading historical data...
Loading historical data...
Loading historical data...
Loading historical data...

Documentation

Showing up to 5 results
|